Time,TemperatureF,DewpointF,PressureIn,WindDirection,WindDirectionDegrees,WindSpeedMPH,WindSpeedGustMPH,Humidity,HourlyPrecipIn,Conditions,Clouds,dailyrainin,SoftwareType,DateUTC
2013-06-13 00:01:00,61.0,45.0,29.92,East,90,2.0,-999.0,55,-99.99,,,-99.99,,2013-06-13 07:01:00,
2013-06-13 00:11:00,61.0,45.0,29.92,East,90,2.0,-999.0,55,-99.99,,,-99.99,,2013-06-13 07:11:00,
2013-06-13 00:21:00,61.0,45.0,29.92,East,100,2.0,-999.0,55,-99.99,,,-99.99,,2013-06-13 07:21:00,
2013-06-13 00:32:00,59.0,45.0,29.92,ESE,120,6.0,-999.0,58,-99.99,,,-99.99,,2013-06-13 07:32:00,
2013-06-13 00:42:00,59.0,45.0,29.93,SSE,160,2.0,-999.0,58,-99.99,,,-99.99,,2013-06-13 07:42:00,
2013-06-13 00:52:00,59.0,45.0,29.93,South,170,3.0,-999.0,58,-99.99,,,-99.99,,2013-06-13 07:52:00,
2013-06-13 01:01:00,59.0,45.0,29.93,South,190,2.0,-999.0,58,-99.99,,,-99.99,,2013-06-13 08:01:00,
2013-06-13 01:11:00,57.0,45.0,29.93,WSW,250,3.0,-999.0,62,-99.99,,,-99.99,,2013-06-13 08:11:00,
2013-06-13 01:21:00,57.0,43.0,29.93,West,270,5.0,-999.0,58,-99.99,,,-99.99,,2013-06-13 08:21:00,
2013-06-13 01:32:00,57.0,43.0,29.93,West,280,7.0,-999.0,58,-99.99,,,-99.99,,2013-06-13 08:32:00,
2013-06-13 01:42:00,63.0,43.0,29.93,WNW,290,8.0,-999.0,48,-99.99,,,-99.99,,2013-06-13 08:42:00,
2013-06-13 01:52:00,64.0,41.0,29.94,WNW,300,8.0,-999.0,42,-99.99,,,-99.99,,2013-06-13 08:52:00,
2013-06-13 02:01:00,64.0,41.0,29.94,WNW,300,10.0,-999.0,42,-99.99,,,-99.99,,2013-06-13 09:01:00,
2013-06-13 02:11:00,64.0,39.0,29.94,WNW,300,8.0,-999.0,39,-99.99,,,-99.99,,2013-06-13 09:11:00,
2013-06-13 02:21:00,64.0,39.0,29.95,WNW,300,8.0,-999.0,39,-99.99,,,-99.99,,2013-06-13 09:21:00,
2013-06-13 02:32:00,64.0,39.0,29.95,NW,310,10.0,-999.0,39,-99.99,,,-99.99,,2013-06-13 09:32:00,
2013-06-13 03:01:00,63.0,43.0,29.96,West,270,7.0,-999.0,48,-99.99,,,-99.99,,2013-06-13 10:01:00,
2013-06-13 03:11:00,61.0,43.0,29.96,West,280,7.0,-999.0,51,-99.99,,,-99.99,,2013-06-13 10:11:00,
2013-06-13 03:22:00,61.0,43.0,29.96,West,280,8.0,-999.0,51,-99.99,,,-99.99,,2013-06-13 10:22:00,
2013-06-13 03:33:00,61.0,43.0,29.96,West,280,9.0,-999.0,51,-99.99,,,-99.99,,2013-06-13 10:33:00,
2013-06-13 03:42:00,61.0,43.0,29.96,West,280,9.0,-999.0,51,-99.99,,,-99.99,,2013-06-13 10:42:00,
2013-06-13 03:53:00,61.0,43.0,29.96,WNW,290,7.0,-999.0,51,-99.99,,,-99.99,,2013-06-13 10:53:00,
2013-06-13 04:01:00,61.0,43.0,29.96,WNW,290,8.0,-999.0,51,-99.99,,,-99.99,,2013-06-13 11:01:00,
2013-06-13 04:11:00,63.0,43.0,29.97,West,280,8.0,-999.0,48,-99.99,,,-99.99,,2013-06-13 11:11:00,
2013-06-13 04:23:00,63.0,41.0,29.97,WNW,300,7.0,-999.0,45,-99.99,,,-99.99,,2013-06-13 11:23:00,
2013-06-13 04:32:00,63.0,41.0,29.97,NNW,330,2.0,-999.0,45,-99.99,,,-99.99,,2013-06-13 11:32:00,
2013-06-13 04:42:00,61.0,43.0,29.97,North,10,3.0,-999.0,51,-99.99,,,-99.99,,2013-06-13 11:42:00,
2013-06-13 04:52:00,55.0,45.0,29.98,ENE,60,3.0,-999.0,66,-99.99,,,-99.99,,2013-06-13 11:52:00,
2013-06-13 05:01:00,55.0,45.0,29.98,NNE,30,2.0,-999.0,66,-99.99,,,-99.99,,2013-06-13 12:01:00,
2013-06-13 05:11:00,55.0,46.0,29.99,ESE,120,1.0,-999.0,71,-99.99,,,-99.99,,2013-06-13 12:11:00,
2013-06-13 05:22:00,54.0,46.0,29.99,ESE,120,1.0,-999.0,76,-99.99,,,-99.99,,2013-06-13 12:22:00,
2013-06-13 05:34:00,54.0,46.0,29.99,East,100,1.0,-999.0,76,-99.99,,,-99.99,,2013-06-13 12:34:00,
2013-06-13 05:42:00,54.0,46.0,29.99,North,0,0.0,-999.0,76,-99.99,,,-99.99,,2013-06-13 12:42:00,
2013-06-13 05:52:00,54.0,46.0,30.00,North,0,0.0,-999.0,76,-99.99,,,-99.99,,2013-06-13 12:52:00,
2013-06-13 06:01:00,55.0,45.0,30.01,North,0,0.0,-999.0,66,-99.99,,,-99.99,,2013-06-13 13:01:00,
2013-06-13 06:11:00,55.0,45.0,30.01,North,0,0.0,-999.0,66,-99.99,,,-99.99,,2013-06-13 13:11:00,
2013-06-13 06:21:00,54.0,45.0,30.01,West,260,1.0,-999.0,71,-99.99,,,-99.99,,2013-06-13 13:21:00,
2013-06-13 06:32:00,54.0,45.0,30.01,West,260,2.0,-999.0,71,-99.99,,,-99.99,,2013-06-13 13:32:00,
2013-06-13 06:43:00,55.0,45.0,30.02,North,0,0.0,-999.0,66,-99.99,,,-99.99,,2013-06-13 13:43:00,
2013-06-13 06:53:00,55.0,45.0,30.02,North,0,0.0,-999.0,66,-99.99,,,-99.99,,2013-06-13 13:53:00,
2013-06-13 07:01:00,59.0,43.0,30.02,North,0,0.0,-999.0,54,-99.99,,,-99.99,,2013-06-13 14:01:00,
2013-06-13 07:11:00,59.0,43.0,30.02,North,0,0.0,-999.0,54,-99.99,,,-99.99,,2013-06-13 14:11:00,
2013-06-13 07:21:00,61.0,43.0,30.03,WNW,290,3.0,-999.0,51,-99.99,,,-99.99,,2013-06-13 14:21:00,
2013-06-13 07:32:00,61.0,43.0,30.03,WNW,300,3.0,-999.0,51,-99.99,,,-99.99,,2013-06-13 14:32:00,
2013-06-13 07:53:00,64.0,45.0,30.03,WNW,300,8.0,-999.0,48,-99.99,,,-99.99,,2013-06-13 14:53:00,
2013-06-13 08:01:00,66.0,43.0,30.03,WNW,300,12.0,16.0,42,-99.99,,,-99.99,,2013-06-13 15:01:00,
2013-06-13 08:21:00,68.0,45.0,30.04,NW,320,10.0,-999.0,42,-99.99,,,-99.99,,2013-06-13 15:21:00,
2013-06-13 08:32:00,70.0,45.0,30.04,NW,320,12.0,16.0,40,-99.99,,,-99.99,,2013-06-13 15:32:00,
2013-06-13 08:43:00,70.0,45.0,30.04,NW,320,16.0,-999.0,40,-99.99,,,-99.99,,2013-06-13 15:43:00,
2013-06-13 08:52:00,70.0,43.0,30.05,NW,320,14.0,21.0,37,-99.99,,,-99.99,,2013-06-13 15:52:00,
2013-06-13 09:01:00,70.0,43.0,30.05,NW,320,17.0,21.0,37,-99.99,,,-99.99,,2013-06-13 16:01:00,
2013-06-13 09:22:00,72.0,43.0,30.06,NW,320,14.0,21.0,35,-99.99,,,-99.99,,2013-06-13 16:22:00,
2013-06-13 09:33:00,72.0,43.0,30.06,NW,320,16.0,21.0,35,-99.99,,,-99.99,,2013-06-13 16:33:00,
2013-06-13 09:43:00,72.0,43.0,30.06,NW,320,17.0,23.0,35,-99.99,,,-99.99,,2013-06-13 16:43:00,
2013-06-13 09:53:00,73.0,43.0,30.06,NNW,340,13.0,22.0,33,-99.99,,,-99.99,,2013-06-13 16:53:00,
2013-06-13 10:02:00,73.0,43.0,30.07,NW,320,12.0,21.0,33,-99.99,,,-99.99,,2013-06-13 17:02:00,
2013-06-13 10:11:00,73.0,43.0,30.07,NW,320,12.0,21.0,33,-99.99,,,-99.99,,2013-06-13 17:11:00,
2013-06-13 10:24:00,73.0,43.0,30.07,NNW,330,14.0,-999.0,33,-99.99,,,-99.99,,2013-06-13 17:24:00,
2013-06-13 10:32:00,73.0,43.0,30.07,NW,320,13.0,20.0,33,-99.99,,,-99.99,,2013-06-13 17:32:00,
2013-06-13 10:43:00,75.0,43.0,30.07,NNW,330,17.0,-999.0,31,-99.99,,,-99.99,,2013-06-13 17:43:00,
2013-06-13 10:53:00,75.0,45.0,30.07,NNW,340,15.0,-999.0,33,-99.99,,,-99.99,,2013-06-13 17:53:00,
2013-06-13 11:01:00,75.0,43.0,30.07,NW,320,10.0,21.0,31,-99.99,,,-99.99,,2013-06-13 18:01:00,
2013-06-13 11:11:00,75.0,45.0,30.07,NNW,330,14.0,22.0,33,-99.99,,,-99.99,,2013-06-13 18:11:00,
2013-06-13 11:22:00,75.0,43.0,30.07,NW,310,9.0,-999.0,31,-99.99,,,-99.99,,2013-06-13 18:22:00,
2013-06-13 11:33:00,75.0,43.0,30.07,NNW,340,10.0,20.0,31,-99.99,,,-99.99,,2013-06-13 18:33:00,
2013-06-13 11:43:00,77.0,41.0,30.07,NNW,340,13.0,20.0,27,-99.99,,,-99.99,,2013-06-13 18:43:00,
2013-06-13 11:52:00,77.0,41.0,30.07,NNW,330,8.0,20.0,27,-99.99,,,-99.99,,2013-06-13 18:52:00,
2013-06-13 12:01:00,77.0,43.0,30.07,NNW,340,10.0,20.0,29,-99.99,,,-99.99,,2013-06-13 19:01:00,
2013-06-13 12:11:00,79.0,43.0,30.07,WNW,300,10.0,-999.0,27,-99.99,,,-99.99,,2013-06-13 19:11:00,
2013-06-13 12:22:00,79.0,39.0,30.07,NNW,340,15.0,17.0,24,-99.99,,,-99.99,,2013-06-13 19:22:00,
2013-06-13 12:32:00,79.0,43.0,30.07,North,0,6.0,-999.0,27,-99.99,,,-99.99,,2013-06-13 19:32:00,
2013-06-13 12:43:00,81.0,41.0,30.06,NNW,330,12.0,-999.0,24,-99.99,,,-99.99,,2013-06-13 19:43:00,
2013-06-13 12:53:00,81.0,43.0,30.06,North,10,13.0,-999.0,26,-99.99,,,-99.99,,2013-06-13 19:53:00,
2013-06-13 13:01:00,81.0,41.0,30.06,NE,40,7.0,-999.0,24,-99.99,,,-99.99,,2013-06-13 20:01:00,
2013-06-13 13:11:00,81.0,43.0,30.06,NE,40,8.0,-999.0,26,-99.99,,,-99.99,,2013-06-13 20:11:00,
2013-06-13 13:22:00,81.0,43.0,30.05,NNE,30,6.0,-999.0,26,-99.99,,,-99.99,,2013-06-13 20:22:00,
2013-06-13 13:32:00,81.0,43.0,30.05,NNE,20,6.0,-999.0,26,-99.99,,,-99.99,,2013-06-13 20:32:00,
2013-06-13 13:43:00,81.0,43.0,30.05,North,360,9.0,-999.0,26,-99.99,,,-99.99,,2013-06-13 20:43:00,
2013-06-13 13:53:00,81.0,43.0,30.05,North,10,10.0,-999.0,26,-99.99,,,-99.99,,2013-06-13 20:53:00,
2013-06-13 14:01:00,82.0,43.0,30.05,NNW,340,7.0,-999.0,24,-99.99,,,-99.99,,2013-06-13 21:01:00,
2013-06-13 14:11:00,81.0,41.0,30.05,North,360,8.0,-999.0,24,-99.99,,,-99.99,,2013-06-13 21:11:00,
2013-06-13 14:22:00,82.0,43.0,30.04,NNE,20,9.0,-999.0,24,-99.99,,,-99.99,,2013-06-13 21:22:00,
2013-06-13 14:33:00,82.0,43.0,30.04,North,360,7.0,-999.0,24,-99.99,,,-99.99,,2013-06-13 21:33:00,
2013-06-13 14:43:00,84.0,41.0,30.04,North,10,7.0,-999.0,21,-99.99,,,-99.99,,2013-06-13 21:43:00,
2013-06-13 14:52:00,82.0,41.0,30.04,North,360,7.0,-999.0,23,-99.99,,,-99.99,,2013-06-13 21:52:00,
2013-06-13 15:01:00,84.0,39.0,30.03,NE,40,5.0,-999.0,20,-99.99,,,-99.99,,2013-06-13 22:01:00,
2013-06-13 15:11:00,84.0,39.0,30.03,NE,40,5.0,-999.0,20,-99.99,,,-99.99,,2013-06-13 22:11:00,
2013-06-13 15:22:00,84.0,39.0,30.03,ENE,60,7.0,-999.0,20,-99.99,,,-99.99,,2013-06-13 22:22:00,
2013-06-13 15:32:00,84.0,39.0,30.03,North,10,6.0,-999.0,20,-99.99,,,-99.99,,2013-06-13 22:32:00,
2013-06-13 15:42:00,84.0,39.0,30.02,East,80,3.0,-999.0,20,-99.99,,,-99.99,,2013-06-13 22:42:00,
2013-06-13 15:52:00,84.0,39.0,30.02,North,350,2.0,-999.0,20,-99.99,,,-99.99,,2013-06-13 22:52:00,
2013-06-13 16:01:00,84.0,39.0,30.02,North,10,5.0,-999.0,20,-99.99,,,-99.99,,2013-06-13 23:01:00,
2013-06-13 16:11:00,84.0,39.0,30.02,ENE,60,3.0,-999.0,20,-99.99,,,-99.99,,2013-06-13 23:11:00,
2013-06-13 16:22:00,84.0,39.0,30.01,East,90,7.0,-999.0,20,-99.99,,,-99.99,,2013-06-13 23:22:00,
2013-06-13 16:32:00,84.0,39.0,30.01,East,80,7.0,-999.0,20,-99.99,,,-99.99,,2013-06-13 23:32:00,
2013-06-13 16:42:00,84.0,41.0,30.00,North,0,0.0,-999.0,21,-99.99,,,-99.99,,2013-06-13 23:42:00,
2013-06-13 16:52:00,84.0,39.0,30.00,North,0,0.0,-999.0,20,-99.99,,,-99.99,,2013-06-13 23:52:00,
2013-06-13 17:01:00,84.0,39.0,30.00,North,0,0.0,-999.0,20,-99.99,,,-99.99,,2013-06-14 00:01:00,
2013-06-13 17:11:00,84.0,39.0,30.00,North,0,0.0,-999.0,20,-99.99,,,-99.99,,2013-06-14 00:11:00,
2013-06-13 17:22:00,86.0,39.0,30.00,ENE,70,7.0,-999.0,19,-99.99,,,-99.99,,2013-06-14 00:22:00,
2013-06-13 17:33:00,84.0,39.0,30.00,ENE,60,3.0,-999.0,20,-99.99,,,-99.99,,2013-06-14 00:33:00,
2013-06-13 17:43:00,84.0,39.0,29.99,North,0,0.0,-999.0,20,-99.99,,,-99.99,,2013-06-14 00:43:00,
2013-06-13 17:53:00,84.0,39.0,29.99,ENE,70,5.0,-999.0,20,-99.99,,,-99.99,,2013-06-14 00:53:00,
2013-06-13 18:01:00,86.0,39.0,29.99,NE,50,3.0,-999.0,19,-99.99,,,-99.99,,2013-06-14 01:01:00,
2013-06-13 18:11:00,84.0,39.0,29.99,East,90,7.0,-999.0,20,-99.99,,,-99.99,,2013-06-14 01:11:00,
2013-06-13 18:22:00,84.0,39.0,29.98,East,100,6.0,-999.0,20,-99.99,,,-99.99,,2013-06-14 01:22:00,
2013-06-13 18:32:00,84.0,39.0,29.98,North,0,0.0,-999.0,20,-99.99,,,-99.99,,2013-06-14 01:32:00,
2013-06-13 18:43:00,84.0,39.0,29.98,North,0,0.0,-999.0,20,-99.99,,,-99.99,,2013-06-14 01:43:00,
2013-06-13 18:52:00,84.0,39.0,29.98,ENE,70,5.0,-999.0,20,-99.99,,,-99.99,,2013-06-14 01:52:00,
2013-06-13 19:01:00,84.0,43.0,29.98,NE,50,7.0,-999.0,23,-99.99,,,-99.99,,2013-06-14 02:01:00,
2013-06-13 19:11:00,84.0,43.0,29.98,East,80,3.0,-999.0,23,-99.99,,,-99.99,,2013-06-14 02:11:00,
2013-06-13 19:22:00,84.0,45.0,29.98,NE,40,6.0,-999.0,24,-99.99,,,-99.99,,2013-06-14 02:22:00,
2013-06-13 19:32:00,84.0,45.0,29.98,ENE,70,7.0,-999.0,24,-99.99,,,-99.99,,2013-06-14 02:32:00,
2013-06-13 19:43:00,82.0,45.0,29.98,East,80,7.0,-999.0,26,-99.99,,,-99.99,,2013-06-14 02:43:00,
2013-06-13 19:52:00,82.0,45.0,29.98,East,80,7.0,-999.0,26,-99.99,,,-99.99,,2013-06-14 02:52:00,
2013-06-13 20:01:00,82.0,41.0,29.98,ENE,70,3.0,-999.0,23,-99.99,,,-99.99,,2013-06-14 03:01:00,
2013-06-13 20:11:00,82.0,41.0,29.98,ENE,70,3.0,-999.0,23,-99.99,,,-99.99,,2013-06-14 03:11:00,
2013-06-13 20:22:00,81.0,43.0,29.98,East,80,5.0,-999.0,26,-99.99,,,-99.99,,2013-06-14 03:22:00,
2013-06-13 20:33:00,79.0,45.0,29.98,ESE,120,3.0,-999.0,29,-99.99,,,-99.99,,2013-06-14 03:33:00,
2013-06-13 20:42:00,81.0,45.0,29.98,SSE,160,5.0,-999.0,28,-99.99,,,-99.99,,2013-06-14 03:42:00,
2013-06-13 20:52:00,79.0,46.0,29.98,SSE,150,3.0,-999.0,31,-99.99,,,-99.99,,2013-06-14 03:52:00,
2013-06-13 21:01:00,77.0,46.0,29.98,South,180,3.0,-999.0,33,-99.99,,,-99.99,,2013-06-14 04:01:00,
2013-06-13 21:12:00,77.0,46.0,29.98,North,0,0.0,-999.0,33,-99.99,,,-99.99,,2013-06-14 04:12:00,
2013-06-13 21:22:00,75.0,46.0,29.98,South,180,5.0,-999.0,35,-99.99,,,-99.99,,2013-06-14 04:22:00,
2013-06-13 21:32:00,75.0,48.0,29.98,South,180,5.0,-999.0,38,-99.99,,,-99.99,,2013-06-14 04:32:00,
2013-06-13 21:42:00,75.0,46.0,29.98,North,0,0.0,-999.0,35,-99.99,,,-99.99,,2013-06-14 04:42:00,
2013-06-13 21:53:00,73.0,48.0,29.99,North,0,0.0,-999.0,40,-99.99,,,-99.99,,2013-06-14 04:53:00,
2013-06-13 22:01:00,72.0,48.0,29.99,North,0,0.0,-999.0,43,-99.99,,,-99.99,,2013-06-14 05:01:00,
2013-06-13 22:11:00,72.0,48.0,29.99,North,0,0.0,-999.0,43,-99.99,,,-99.99,,2013-06-14 05:11:00,
2013-06-13 22:22:00,72.0,48.0,29.99,North,0,0.0,-999.0,43,-99.99,,,-99.99,,2013-06-14 05:22:00,
2013-06-13 22:33:00,70.0,46.0,29.99,North,0,0.0,-999.0,43,-99.99,,,-99.99,,2013-06-14 05:33:00,
2013-06-13 22:42:00,70.0,48.0,29.99,West,270,7.0,-999.0,46,-99.99,,,-99.99,,2013-06-14 05:42:00,
2013-06-13 22:52:00,70.0,48.0,29.99,West,280,5.0,-999.0,46,-99.99,,,-99.99,,2013-06-14 05:52:00,
2013-06-13 23:01:00,70.0,48.0,29.99,North,0,0.0,-999.0,46,-99.99,,,-99.99,,2013-06-14 06:01:00,
2013-06-13 23:11:00,70.0,48.0,29.99,North,0,0.0,-999.0,46,-99.99,,,-99.99,,2013-06-14 06:11:00,
2013-06-13 23:22:00,68.0,46.0,29.98,West,260,7.0,-999.0,45,-99.99,,,-99.99,,2013-06-14 06:22:00,
2013-06-13 23:33:00,66.0,45.0,29.98,West,260,7.0,-999.0,45,-99.99,,,-99.99,,2013-06-14 06:33:00,
2013-06-13 23:43:00,68.0,45.0,29.98,West,260,6.0,-999.0,42,-99.99,,,-99.99,,2013-06-14 06:43:00,
2013-06-13 23:52:00,66.0,43.0,29.98,West,260,6.0,-999.0,42,-99.99,,,-99.99,,2013-06-14 06:52:00,